Weather History for KMNM - February, 2014

Change the Weather History Date:

Tuesday, February 25, 2014

  Actual Average Record
Temperature  
Mean Temperature 5 °F -  
Max Temperature 12 °F 33 °F 50 °F (1957)
Min Temperature -2 °F 14 °F -12 °F (1950)
Degree Days  
Heating Degree Days 60    
Moisture  
Dew Point -5 °F    
Average Humidity 61    
Maximum Humidity 100    
Minimum Humidity 41    
Precipitation  
Precipitation 0.00 in - - ()
Sea Level Pressure  
Sea Level Pressure 30.08 in    
Wind  
Wind Speed 5 mph (WNW)    
Max Wind Speed 15 mph    
Max Gust Speed 21 mph    
Visibility 10 miles    
Events      
Averages and records for this station are not official NWS values.
T = Trace of Precipitation, MM = Missing Value Source: NWS Daily Summary

Daily Weather History Graph

Daily Weather History Graph

Search for Another Location

Airport or City:

Trip Planner

Search our weather history database for the weather conditions in past years. The results will help you decide how hot, cold, wet, or windy it might be!

Date:

Astronomy

Feb. 25, 2014 Rise Set
Actual Time 6:35 AM CST 5:32 PM CST
Civil Twilight 6:05 AM CST 6:02 PM CST
Nautical Twilight 5:31 AM CST 6:36 PM CST
Astronomical Twilight 4:57 AM CST 7:10 PM CST
Moon 3:37 AM CST (2/25) 1:30 PM CST (2/25)
Length of Visible Light 11h 56m
Length of Day
10h 57m
Waning Crescent, 18% of the Moon is Illuminated
Feb 25
Waning Crescent
Mar 1
New
Mar 8
First Quarter
Mar 16
Full
Mar 23
Last Quarter

Hourly Weather History & Observations

Time (CST) Temp. Windchill Dew Point Humidity Pressure Visibility Wind Dir Wind Speed Gust Speed Precip Events Conditions
12:15 AM -2.2 °F -10.4 °F -2.2 °F 100% 30.14 in 10.0 mi West 3.5 mph - N/A   Clear
12:35 AM 1.4 °F -6.2 °F -0.4 °F 92% 30.14 in 10.0 mi WNW 3.5 mph - N/A   Mostly Cloudy
12:55 AM 1.4 °F - -0.4 °F 92% 30.13 in 10.0 mi Calm Calm - N/A   Partly Cloudy
1:15 AM 1.4 °F - -2.2 °F 85% 30.13 in 10.0 mi Calm Calm - N/A   Clear
1:35 AM 1.4 °F - -4.0 °F 78% 30.13 in 10.0 mi Calm Calm - N/A   Clear
1:55 AM 1.4 °F - -2.2 °F 85% 30.13 in 10.0 mi Calm Calm - N/A   Clear
2:15 AM 1.4 °F - -0.4 °F 92% 30.12 in 10.0 mi Calm Calm - N/A   Scattered Clouds
2:35 AM 1.4 °F -6.2 °F -0.4 °F 92% 30.12 in 10.0 mi West 3.5 mph - N/A   Partly Cloudy
2:55 AM 1.4 °F -8.3 °F -2.2 °F 85% 30.12 in 10.0 mi West 4.6 mph - N/A   Clear
3:15 AM 3.2 °F -4.2 °F -0.4 °F 85% 30.12 in 10.0 mi West 3.5 mph - N/A   Scattered Clouds
3:35 AM 3.2 °F -4.2 °F -2.2 °F 78% 30.11 in 10.0 mi West 3.5 mph - N/A   Scattered Clouds
3:55 AM 3.2 °F -4.2 °F -0.4 °F 85% 30.11 in 10.0 mi West 3.5 mph - N/A   Clear
4:15 AM 5.0 °F -2.1 °F -0.4 °F 78% 30.11 in 10.0 mi West 3.5 mph - N/A   Mostly Cloudy
4:35 AM 6.8 °F -2.0 °F -0.4 °F 72% 30.11 in 10.0 mi West 4.6 mph - N/A   Mostly Cloudy
4:55 AM 6.8 °F -2.0 °F -0.4 °F 72% 30.11 in 10.0 mi West 4.6 mph - N/A   Partly Cloudy
5:15 AM 6.8 °F -2.0 °F -2.2 °F 67% 30.10 in 10.0 mi West 4.6 mph - N/A   Clear
5:35 AM 5.0 °F -2.1 °F -0.4 °F 78% 30.10 in 10.0 mi West 3.5 mph - N/A   Clear
5:55 AM 5.0 °F -4.1 °F -2.2 °F 72% 30.10 in 10.0 mi West 4.6 mph - N/A   Clear
6:15 AM 3.2 °F -6.2 °F -0.4 °F 85% 30.10 in 10.0 mi West 4.6 mph - N/A   Clear
6:35 AM 3.2 °F -6.2 °F -2.2 °F 78% 30.10 in 10.0 mi West 4.6 mph - N/A   Scattered Clouds
6:55 AM 3.2 °F -7.8 °F -2.2 °F 78% 30.10 in 10.0 mi West 5.8 mph - N/A   Overcast
7:15 AM 3.2 °F -6.2 °F -2.2 °F 78% 30.10 in 10.0 mi West 4.6 mph - N/A   Mostly Cloudy
7:35 AM 5.0 °F -5.6 °F -2.2 °F 72% 30.10 in 10.0 mi West 5.8 mph - N/A   Clear
7:55 AM 6.8 °F -4.8 °F -2.2 °F 67% 30.11 in 10.0 mi WNW 6.9 mph - N/A   Clear
8:15 AM 6.8 °F -4.8 °F -2.2 °F 67% 30.10 in 10.0 mi WNW 6.9 mph - N/A   Clear
8:35 AM 6.8 °F -6.9 °F -4.0 °F 61% 30.10 in 10.0 mi NW 9.2 mph 17.3 mph N/A   Clear
8:55 AM 6.8 °F -5.9 °F -2.2 °F 67% 30.10 in 10.0 mi NW 8.1 mph - N/A   Clear
9:15 AM 6.8 °F -8.6 °F -2.2 °F 67% 30.09 in 10.0 mi WNW 11.5 mph 16.1 mph N/A   Clear
9:35 AM 6.8 °F -4.8 °F -5.8 °F 56% 30.09 in 10.0 mi WNW 6.9 mph 18.4 mph N/A   Clear
9:55 AM 8.6 °F -4.7 °F -5.8 °F 52% 30.09 in 10.0 mi West 9.2 mph 17.3 mph N/A   Clear
10:15 AM 8.6 °F -3.7 °F -5.8 °F 52% 30.09 in 10.0 mi NW 8.1 mph 16.1 mph N/A   Clear
10:35 AM 8.6 °F -6.3 °F -5.8 °F 52% 30.08 in 10.0 mi NW 11.5 mph 20.7 mph N/A   Clear
10:55 AM 8.6 °F -2.6 °F -7.6 °F 48% 30.08 in 10.0 mi WNW 6.9 mph - N/A   Clear
11:15 AM 8.6 °F -4.7 °F -5.8 °F 52% 30.08 in 10.0 mi NW 9.2 mph 17.3 mph N/A   Clear
11:35 AM 10.4 °F -4.8 °F -7.6 °F 44% 30.07 in 10.0 mi NW 12.7 mph 19.6 mph N/A   Clear
11:55 AM 10.4 °F -0.4 °F -7.6 °F 44% 30.06 in 10.0 mi WNW 6.9 mph 17.3 mph N/A   Clear
12:15 PM 10.4 °F -4.1 °F -7.6 °F 44% 30.05 in 10.0 mi NW 11.5 mph 20.7 mph N/A   Clear
12:35 PM 10.4 °F -6.0 °F -7.6 °F 44% 30.04 in 10.0 mi West 15.0 mph 18.4 mph N/A   Partly Cloudy
12:55 PM 10.4 °F -2.4 °F -5.8 °F 48% 30.03 in 10.0 mi West 9.2 mph - N/A   Clear
1:15 PM 12.2 °F -1.8 °F -5.8 °F 45% 30.03 in 10.0 mi NW 11.5 mph 17.3 mph N/A   Clear
1:35 PM 12.2 °F -2.5 °F -5.8 °F 45% 30.02 in 10.0 mi WNW 12.7 mph 20.7 mph N/A   Clear
1:55 PM 12.2 °F -1.0 °F -5.8 °F 45% 30.02 in 10.0 mi WNW 10.4 mph 20.7 mph N/A   Clear
2:15 PM 12.2 °F 1.7 °F -7.6 °F 41% 30.02 in 10.0 mi NW 6.9 mph - N/A   Partly Cloudy
2:35 PM 12.2 °F -2.5 °F -5.8 °F 45% 30.01 in 10.0 mi NNW 12.7 mph 19.6 mph N/A   Partly Cloudy
2:55 PM 12.2 °F -3.1 °F -7.6 °F 41% 30.01 in 10.0 mi NNW 13.8 mph 17.3 mph N/A   Partly Cloudy
3:15 PM 12.2 °F 0.7 °F -7.6 °F 41% 30.01 in 10.0 mi NW 8.1 mph 16.1 mph N/A   Partly Cloudy
3:35 PM 12.2 °F -0.2 °F -7.6 °F 41% 30.01 in 10.0 mi WNW 9.2 mph - N/A   Clear
3:55 PM 12.2 °F -1.0 °F -7.6 °F 41% 30.01 in 10.0 mi NNW 10.4 mph - N/A   Clear
4:15 PM 12.2 °F -3.7 °F -5.8 °F 45% 30.01 in 10.0 mi North 15.0 mph 18.4 mph N/A   Partly Cloudy
4:35 PM 12.2 °F 2.9 °F -7.6 °F 41% 30.01 in 10.0 mi NW 5.8 mph - N/A   Scattered Clouds
4:55 PM 12.2 °F -0.2 °F -7.6 °F 41% 30.02 in 10.0 mi NW 9.2 mph 18.4 mph N/A   Scattered Clouds
5:15 PM 10.4 °F 0.8 °F -7.6 °F 44% 30.02 in 10.0 mi WNW 5.8 mph - N/A   Mostly Cloudy
5:35 PM 10.4 °F -1.5 °F -7.6 °F 44% 30.03 in 10.0 mi NW 8.1 mph - N/A   Mostly Cloudy
5:55 PM 8.6 °F -5.5 °F -9.4 °F 44% 30.03 in 10.0 mi NNW 10.4 mph - N/A   Partly Cloudy
6:15 PM 8.6 °F -5.5 °F -9.4 °F 44% 30.04 in 10.0 mi NW 10.4 mph 16.1 mph N/A   Clear
6:35 PM 8.6 °F -2.6 °F -9.4 °F 44% 30.05 in 10.0 mi NNW 6.9 mph - N/A   Clear
6:55 PM 8.6 °F -3.7 °F -7.6 °F 48% 30.06 in 10.0 mi NNW 8.1 mph - N/A   Clear
7:15 PM 6.8 °F -6.9 °F -5.8 °F 56% 30.07 in 10.0 mi NNW 9.2 mph - N/A   Scattered Clouds
7:35 PM 6.8 °F -8.6 °F -7.6 °F 52% 30.08 in 10.0 mi North 11.5 mph 19.6 mph N/A   Partly Cloudy
7:55 PM 5.0 °F -6.9 °F -7.6 °F 56% 30.08 in 10.0 mi NNW 6.9 mph - N/A   Clear
8:15 PM 5.0 °F -5.6 °F -5.8 °F 61% 30.08 in 10.0 mi NW 5.8 mph - N/A   Clear
8:35 PM 3.2 °F -7.8 °F -9.4 °F 56% 30.08 in 10.0 mi NW 5.8 mph - N/A   Clear
8:55 PM 3.2 °F -4.2 °F -9.4 °F 56% 30.09 in 10.0 mi NW 3.5 mph - N/A   Clear
9:15 PM 3.2 °F -6.2 °F -9.4 °F 56% 30.09 in 10.0 mi WNW 4.6 mph - N/A   Clear
9:35 PM 1.4 °F -12.5 °F -9.4 °F 61% 30.09 in 10.0 mi WNW 8.1 mph - N/A   Clear
9:55 PM 1.4 °F -9.9 °F -9.4 °F 61% 30.09 in 10.0 mi WNW 5.8 mph - N/A   Clear
10:15 PM 1.4 °F -8.3 °F -9.4 °F 61% 30.09 in 10.0 mi WNW 4.6 mph - N/A   Clear
10:35 PM 1.4 °F -8.3 °F -9.4 °F 61% 30.09 in 10.0 mi NW 4.6 mph - N/A   Clear
10:55 PM 1.4 °F -8.3 °F -9.4 °F 61% 30.09 in 10.0 mi NW 4.6 mph - N/A   Clear
11:15 PM 1.4 °F -6.2 °F -9.4 °F 61% 30.09 in 10.0 mi WNW 3.5 mph - N/A   Clear
11:35 PM -0.4 °F -12.0 °F -11.2 °F 60% 30.09 in 10.0 mi West 5.8 mph - N/A   Clear
11:55 PM -0.4 °F -12.0 °F -9.4 °F 66% 30.09 in 10.0 mi WNW 5.8 mph - N/A   Clear